When you browse on this site, cookies collect data to enhance your experience and personalize the content and advertising you see.
Visit our Privacy Policy to learn more. By continuing to use the site, you agree to this use of cookies and data.
EN

Hourly Weather Starobeshevo

Today, 11 July, Saturday

Time Temperature Precipitation Wind Pressure Humidity
00:00 +20°C° 0 mm 3 mps 755 mmHg 62%
01:00 +19°C° 0 mm 3 mps 755 mmHg 63%
02:00 +19°C° 0 mm 3 mps 755 mmHg 65%
03:00 +18°C° 0 mm 3 mps 755 mmHg 66%
04:00 +18°C° 0 mm 3 mps 755 mmHg 67%
05:00 +18°C° 0 mm 3 mps 755 mmHg 67%
06:00 +18°C° 0 mm 3 mps 755 mmHg 68%
07:00 +20°C° 0 mm 3 mps 755 mmHg 62%
08:00 +22°C° 0 mm 4 mps 755 mmHg 57%
09:00 +25°C° 0 mm 4 mps 755 mmHg 51%
10:00 +26°C° 0 mm 4 mps 755 mmHg 47%
11:00 +27°C° 0 mm 4 mps 755 mmHg 43%
12:00 +28°C° 0 mm 4 mps 755 mmHg 39%
13:00 +29°C° 0 mm 4 mps 755 mmHg 37%
14:00 +29°C° 0 mm 4 mps 754 mmHg 36%
15:00 +30°C° 0 mm 4 mps 754 mmHg 34%
16:00 +30°C° 0 mm 5 mps 753 mmHg 36%
17:00 +29°C° 0 mm 5 mps 753 mmHg 37%
18:00 +29°C° 0 mm 5 mps 753 mmHg 39%
19:00 +27°C° 0 mm 4 mps 753 mmHg 44%
20:00 +25°C° 0 mm 4 mps 753 mmHg 48%
21:00 +23°C° 0 mm 4 mps 753 mmHg 53%
22:00 +22°C° 0 mm 4 mps 752 mmHg 55%
23:00 +21°C° 0 mm 4 mps 752 mmHg 58%

Tomorrow, 12 July, Sunday

Time Temperature Precipitation Wind Pressure Humidity
00:00 +21°C° 0 mm 4 mps 752 mmHg 60%
01:00 +20°C° 0 mm 4 mps 752 mmHg 62%
02:00 +20°C° 0 mm 4 mps 751 mmHg 64%
03:00 +20°C° 0 mm 4 mps 751 mmHg 66%
04:00 +20°C° 0 mm 4 mps 751 mmHg 68%
05:00 +20°C° 0 mm 4 mps 751 mmHg 70%
06:00 +20°C° 0 mm 4 mps 750 mmHg 72%
07:00 +22°C° 0 mm 4 mps 750 mmHg 68%
08:00 +25°C° 0 mm 4 mps 750 mmHg 65%
09:00 +27°C° 0 mm 4 mps 750 mmHg 61%
10:00 +29°C° 0 mm 4 mps 750 mmHg 56%
11:00 +32°C° 0 mm 4 mps 749 mmHg 50%
12:00 +34°C° 0 mm 4 mps 749 mmHg 45%
13:00 +33°C° 0 mm 3 mps 749 mmHg 46%
14:00 +33°C° 0 mm 3 mps 748 mmHg 46%
15:00 +33°C° 0 mm 3 mps 748 mmHg 47%
16:00 +31°C° 0.6 mm 3 mps 747 mmHg 53%
17:00 +29°C° 0.6 mm 3 mps 747 mmHg 59%
18:00 +28°C° 0.6 mm 3 mps 746 mmHg 66%
19:00 +27°C° 1.3 mm 3 mps 746 mmHg 69%
20:00 +26°C° 1.3 mm 3 mps 746 mmHg 73%
21:00 +25°C° 1.3 mm 3 mps 746 mmHg 77%
22:00 +25°C° 1.1 mm 3 mps 746 mmHg 77%
23:00 +25°C° 1.1 mm 3 mps 746 mmHg 77%

Day after tomorrow, 13 July, Monday

Time Temperature Precipitation Wind Pressure Humidity
00:00 +23°C° 1.1 mm 4 mps 746 mmHg 77%
01:00 +24°C° 0.4 mm 3 mps 746 mmHg 80%
02:00 +23°C° 0.4 mm 2 mps 745 mmHg 83%
03:00 +23°C° 0.4 mm 1 mps 745 mmHg 86%
04:00 +23°C° 0.3 mm 1 mps 745 mmHg 85%
05:00 +23°C° 0.3 mm 1 mps 744 mmHg 84%
06:00 +23°C° 0.3 mm 1 mps 744 mmHg 83%
07:00 +24°C° 0.2 mm 1 mps 744 mmHg 78%
08:00 +25°C° 0.2 mm 1 mps 744 mmHg 72%
09:00 +27°C° 0.2 mm 1 mps 744 mmHg 67%
10:00 +28°C° 0 mm 1 mps 744 mmHg 61%
11:00 +30°C° 0 mm 1 mps 744 mmHg 54%
12:00 +31°C° 0 mm 1 mps 744 mmHg 48%
13:00 +32°C° 0 mm 1 mps 744 mmHg 45%
14:00 +34°C° 0 mm 2 mps 744 mmHg 43%
15:00 +34°C° 0 mm 2 mps 743 mmHg 40%
16:00 +31°C° 1.2 mm 3 mps 743 mmHg 50%
17:00 +28°C° 1.2 mm 4 mps 742 mmHg 60%
18:00 +25°C° 1.2 mm 4 mps 742 mmHg 71%
19:00 +25°C° 2.5 mm 4 mps 742 mmHg 74%
20:00 +24°C° 2.5 mm 3 mps 743 mmHg 77%
21:00 +23°C° 2.5 mm 2 mps 743 mmHg 80%
22:00 +23°C° 0.9 mm 2 mps 743 mmHg 80%
23:00 +23°C° 0.9 mm 2 mps 743 mmHg 80%

14 July, Tuesday

Time Temperature Precipitation Wind Pressure Humidity
00:00 +23°C° 0.9 mm 2 mps 743 mmHg 80%
01:00 +23°C° 0 mm 2 mps 743 mmHg 81%
02:00 +21°C° 0 mm 2 mps 743 mmHg 83%
03:00 +21°C° 0 mm 2 mps 743 mmHg 84%
04:00 +21°C° 0.2 mm 2 mps 743 mmHg 86%
05:00 +21°C° 0.2 mm 2 mps 743 mmHg 88%
06:00 +21°C° 0.2 mm 2 mps 743 mmHg 89%
07:00 +21°C° 0.1 mm 3 mps 743 mmHg 86%
08:00 +22°C° 0.1 mm 3 mps 743 mmHg 83%
09:00 +24°C° 0.1 mm 3 mps 744 mmHg 79%
10:00 +24°C° 0.9 mm 3 mps 744 mmHg 78%
11:00 +25°C° 0.9 mm 3 mps 744 mmHg 76%
12:00 +25°C° 0.9 mm 3 mps 744 mmHg 75%
13:00 +25°C° 0.4 mm 4 mps 744 mmHg 73%
14:00 +26°C° 0.4 mm 5 mps 745 mmHg 70%
15:00 +26°C° 0.4 mm 6 mps 745 mmHg 68%
16:00 +24°C° 0.1 mm 6 mps 745 mmHg 69%
17:00 +23°C° 0.1 mm 6 mps 745 mmHg 70%
18:00 +23°C° 0.1 mm 6 mps 745 mmHg 71%
19:00 +22°C° 0 mm 6 mps 745 mmHg 74%
20:00 +20°C° 0 mm 5 mps 746 mmHg 76%
21:00 +19°C° 0 mm 4 mps 746 mmHg 79%
22:00 +19°C° 0 mm 4 mps 746 mmHg 81%
23:00 +18°C° 0 mm 4 mps 746 mmHg 83%

15 July, Wednesday

Time Temperature Precipitation Wind Pressure Humidity
00:00 +18°C° 0 mm 4 mps 747 mmHg 85%
01:00 +17°C° 0 mm 4 mps 747 mmHg 86%
02:00 +17°C° 0 mm 4 mps 747 mmHg 87%
03:00 +17°C° 0 mm 4 mps 747 mmHg 88%
04:00 +17°C° 0 mm 4 mps 747 mmHg 86%
05:00 +17°C° 0 mm 4 mps 747 mmHg 85%
06:00 +17°C° 0 mm 5 mps 748 mmHg 84%
07:00 +19°C° 0 mm 5 mps 748 mmHg 80%
08:00 +20°C° 0 mm 5 mps 748 mmHg 76%
09:00 +21°C° 0 mm 5 mps 748 mmHg 72%
10:00 +22°C° 0.1 mm 5 mps 749 mmHg 65%
11:00 +23°C° 0.1 mm 5 mps 749 mmHg 59%
12:00 +26°C° 0.1 mm 5 mps 749 mmHg 52%
13:00 +26°C° 0 mm 5 mps 749 mmHg 49%
14:00 +27°C° 0 mm 6 mps 749 mmHg 46%
15:00 +27°C° 0 mm 6 mps 749 mmHg 43%
16:00 +27°C° 0 mm 5 mps 749 mmHg 45%
17:00 +26°C° 0 mm 5 mps 749 mmHg 47%
18:00 +26°C° 0 mm 5 mps 749 mmHg 48%
19:00 +23°C° 0 mm 4 mps 749 mmHg 53%
20:00 +22°C° 0 mm 3 mps 750 mmHg 57%
21:00 +20°C° 0 mm 3 mps 750 mmHg 61%
22:00 +19°C° 0 mm 2 mps 750 mmHg 65%
23:00 +18°C° 0 mm 2 mps 750 mmHg 69%

16 July, Thursday

Time Temperature Precipitation Wind Pressure Humidity
00:00 +19°C° 0 mm 1 mps 750 mmHg 72%
01:00 +18°C° 0 mm 1 mps 750 mmHg 75%
02:00 +17°C° 0 mm 2 mps 750 mmHg 77%
03:00 +16°C° 0 mm 2 mps 750 mmHg 79%
04:00 +16°C° 0 mm 2 mps 750 mmHg 78%
05:00 +16°C° 0 mm 2 mps 750 mmHg 78%
06:00 +17°C° 0 mm 2 mps 750 mmHg 78%
07:00 +18°C° 0 mm 3 mps 750 mmHg 70%
08:00 +20°C° 0 mm 3 mps 750 mmHg 63%
09:00 +21°C° 0 mm 3 mps 750 mmHg 56%
10:00 +22°C° 0 mm 4 mps 750 mmHg 51%
11:00 +23°C° 0 mm 4 mps 750 mmHg 47%
12:00 +25°C° 0 mm 4 mps 750 mmHg 42%
13:00 +25°C° 0 mm 4 mps 750 mmHg 43%
14:00 +25°C° 0 mm 4 mps 750 mmHg 43%
15:00 +25°C° 0 mm 4 mps 750 mmHg 44%
16:00 +25°C° 0 mm 4 mps 750 mmHg 45%
17:00 +25°C° 0 mm 3 mps 750 mmHg 46%
18:00 +24°C° 0 mm 3 mps 750 mmHg 47%
19:00 +23°C° 0 mm 2 mps 750 mmHg 50%
20:00 +21°C° 0 mm 2 mps 750 mmHg 54%
21:00 +20°C° 0 mm 1 mps 750 mmHg 58%
22:00 +20°C° 0 mm 1 mps 750 mmHg 59%
23:00 +20°C° 0 mm 1 mps 750 mmHg 60%
Show more